Simultaneous Nadir Overpasses (SNOs) Predictions

Prediction of SNOs between METOP-B and NOAA-19 Satellite Orbit:

Table of predicted SNOs for the next 14.0 days since TLE Epoch: 2/15/2019
Index Date (METOP-B) Time (METOP-B) Lat,Lon (METOP-B) SZA (METOP-B ) Date (NOAA-19) Time (NOAA-19) Lat,Lon (NOAA-19) SZA (NOAA-19 ) Distance(km) Time Diff (sec)
1 02/23/2019 15:46:09 79.02, -42.41 88.92 02/23/2019 15:44:55 79.02, -42.32 88.92 1.92 74
2 02/23/2019 16:36:50 -79.04, 125.05 91.07 02/23/2019 16:36:00 -79.01, 125.03 91.11 3.71 50
3 02/23/2019 17:27:31 79.01, -67.84 88.88 02/23/2019 17:26:56 79.02, -67.84 88.89 1.82 35
4 02/23/2019 18:18:12 -79.03, 99.62 91.11 02/23/2019 18:18:01 -79.01, 99.51 91.14 2.93 11
5 02/23/2019 19:08:53 79.00, -93.27 88.84 02/23/2019 19:08:56 78.99, -93.09 88.85 3.81 3
6 02/23/2019 19:59:35 -78.98, 73.94 91.20 02/23/2019 20:00:02 -79.01, 74.00 91.16 3.95 27
7 02/23/2019 20:50:15 78.98,-118.71 88.80 02/23/2019 20:50:57 79.00,-118.61 88.82 2.57 42
8 02/23/2019 21:40:56 -79.00, 48.75 91.20 02/23/2019 21:42:02 -78.98, 48.74 91.21 2.18 66




NCC Satellite Simultaneous Nadir Overpasses (SNOs) Prediction Service
